SAS454 ENGM-ENDU

Flight info

Callsign SAS454
Flight time N/A
Altitude 37000
Route RIBBE DCT GIGNI DCT SOMUB DCT GUBAV DCT PENNO DCT XAPAN
Aircraft B738/M-SDE2E3FGHIRWXY/LB1

Departure

Time 2026-05-06 05:49
Airport Oslo-Gardermoen International Airport (ENGM)

Arrival

Time N/A
Airport Bardufoss Airport (ENDU)
Time Latitude Longitude Altitude Speed Heading
2026-05-06 05:18 60.19486 11.09271 678 ft 0 kts 17°
2026-05-06 05:39 60.19467 11.09260 679 ft 4 kts 16°
2026-05-06 05:39 60.19445 11.09248 679 ft 1 kts 16°
2026-05-06 05:42 60.19450 11.09246 679 ft 2 kts 349°
2026-05-06 05:42 60.19454 11.09215 681 ft 5 kts 278°
2026-05-06 05:42 60.19462 11.09074 684 ft 15 kts 279°
2026-05-06 05:43 60.19491 11.08855 683 ft 17 kts 287°
2026-05-06 05:43 60.19522 11.08636 674 ft 12 kts 285°
2026-05-06 05:43 60.19483 11.08503 676 ft 13 kts 202°
2026-05-06 05:43 60.19386 11.08450 675 ft 15 kts 196°
2026-05-06 05:44 60.19288 11.08393 674 ft 15 kts 196°
2026-05-06 05:44 60.19178 11.08332 673 ft 19 kts 195°
2026-05-06 05:44 60.19019 11.08241 672 ft 27 kts 196°
2026-05-06 05:44 60.18819 11.08123 671 ft 29 kts 196°
2026-05-06 05:45 60.18643 11.08023 669 ft 23 kts 196°
2026-05-06 05:45 60.18492 11.07933 668 ft 22 kts 196°
2026-05-06 05:45 60.18389 11.07875 668 ft 14 kts 195°
2026-05-06 05:45 60.18355 11.07726 664 ft 8 kts 281°
2026-05-06 05:46 60.18368 11.07679 663 ft 3 kts 315°
2026-05-06 05:46 60.18398 11.07631 663 ft 7 kts 323°
2026-05-06 05:46 60.18414 11.07607 663 ft 0 kts 324°
2026-05-06 05:47 60.18417 11.07602 663 ft 2 kts 324°
2026-05-06 05:47 60.18439 11.07571 663 ft 6 kts 324°
2026-05-06 05:47 60.18481 11.07509 664 ft 9 kts 323°
2026-05-06 05:48 60.18538 11.07430 664 ft 10 kts 333°
2026-05-06 05:48 60.18588 11.07426 665 ft 2 kts 14°
2026-05-06 05:49 60.18630 11.07449 665 ft 29 kts 16°
2026-05-06 05:49 60.19075 11.07704 669 ft 102 kts 15°
2026-05-06 05:49 60.19960 11.08204 683 ft 159 kts 16°
2026-05-06 05:49 60.21053 11.08917 1335 ft 167 kts 22°
2026-05-06 05:50 60.22190 11.09684 2000 ft 187 kts 14°
2026-05-06 05:50 60.23545 11.10388 2340 ft 210 kts 14°
2026-05-06 05:50 60.25034 11.11137 2680 ft 228 kts 12°
2026-05-06 05:50 60.26657 11.11348 3061 ft 246 kts 353°
2026-05-06 05:51 60.28390 11.10799 3667 ft 258 kts 350°
2026-05-06 05:51 60.30175 11.10209 4542 ft 261 kts 349°
2026-05-06 05:51 60.31983 11.09627 5398 ft 265 kts 349°
2026-05-06 05:51 60.33813 11.09065 6303 ft 267 kts 352°
2026-05-06 05:52 60.35664 11.09506 7111 ft 274 kts 19°
2026-05-06 05:52 60.37437 11.11010 7923 ft 279 kts 22°
2026-05-06 05:52 60.39229 11.12602 8726 ft 283 kts 22°
2026-05-06 05:52 60.41027 11.14206 9546 ft 287 kts 22°
2026-05-06 05:53 60.42897 11.15866 10281 ft 293 kts 21°
2026-05-06 05:53 60.44840 11.17581 10513 ft 317 kts 21°
2026-05-06 05:53 60.46889 11.19382 10890 ft 332 kts 21°
2026-05-06 05:53 60.49030 11.21261 11546 ft 338 kts 21°
2026-05-06 05:54 60.51205 11.23169 12335 ft 341 kts 21°
2026-05-06 05:54 60.53395 11.25092 13145 ft 345 kts 20°
2026-05-06 05:54 60.55619 11.27045 13930 ft 350 kts 20°
2026-05-06 05:54 60.57872 11.29025 14683 ft 355 kts 20°
2026-05-06 05:55 60.60150 11.31030 15457 ft 359 kts 19°
2026-05-06 05:55 60.62458 11.33063 16187 ft 364 kts 19°
2026-05-06 05:55 60.64805 11.35133 16920 ft 370 kts 18°
2026-05-06 05:55 60.67181 11.37232 17658 ft 375 kts 18°
2026-05-06 05:56 60.69590 11.39364 18350 ft 380 kts 17°
2026-05-06 05:56 60.72031 11.41529 18940 ft 385 kts 17°
2026-05-06 05:56 60.74518 11.43689 19495 ft 389 kts 12°
2026-05-06 05:56 60.77120 11.44702 20034 ft 378 kts 354°
2026-05-06 05:57 60.79755 11.44957 20698 ft 380 kts 353°
2026-05-06 05:57 60.82411 11.45202 21304 ft 385 kts 352°
2026-05-06 05:57 60.85100 11.45471 21973 ft 390 kts 353°
2026-05-06 05:57 60.87829 11.45770 22507 ft 395 kts 353°
2026-05-06 05:58 60.90592 11.46093 23059 ft 400 kts 352°
2026-05-06 05:58 60.93387 11.46436 23615 ft 404 kts 352°
2026-05-06 05:58 60.96209 11.46787 24043 ft 409 kts 352°
2026-05-06 05:58 60.99062 11.47145 24499 ft 412 kts 352°
2026-05-06 05:59 61.01930 11.47505 24965 ft 415 kts 352°
2026-05-06 05:59 61.04824 11.47866 25406 ft 418 kts 352°
2026-05-06 05:59 61.07746 11.48228 25823 ft 422 kts 351°
2026-05-06 05:59 61.10674 11.48396 26227 ft 422 kts 349°
2026-05-06 06:00 61.13620 11.48392 26634 ft 424 kts 348°
2026-05-06 06:00 61.16542 11.48339 27034 ft 427 kts 348°
2026-05-06 06:00 61.19570 11.48290 27433 ft 432 kts 348°
2026-05-06 06:00 61.22545 11.48265 27808 ft 435 kts 348°
2026-05-06 06:01 61.25584 11.48261 28193 ft 439 kts 348°
2026-05-06 06:01 61.28650 11.48269 28582 ft 442 kts 348°
2026-05-06 06:01 61.31736 11.48282 28976 ft 446 kts 349°
2026-05-06 06:01 61.34852 11.48294 29350 ft 449 kts 349°
2026-05-06 06:02 61.37991 11.48306 29694 ft 452 kts 349°
2026-05-06 06:02 61.41147 11.48318 30030 ft 455 kts 349°
2026-05-06 06:02 61.44324 11.48330 30378 ft 458 kts 349°
2026-05-06 06:02 61.47525 11.48343 30650 ft 461 kts 350°
2026-05-06 06:03 61.50734 11.48358 30960 ft 462 kts 351°
2026-05-06 06:03 61.53948 11.48375 31330 ft 461 kts 351°
2026-05-06 06:03 61.57150 11.48390 31745 ft 460 kts 351°
2026-05-06 06:03 61.60353 11.48403 32127 ft 460 kts 351°
2026-05-06 06:04 61.63549 11.48413 32493 ft 459 kts 352°
2026-05-06 06:04 61.66748 11.48421 32861 ft 459 kts 352°
2026-05-06 06:04 61.69938 11.48428 33237 ft 458 kts 352°
2026-05-06 06:04 61.73130 11.48435 33595 ft 458 kts 352°
2026-05-06 06:05 61.76316 11.48443 33975 ft 458 kts 353°
2026-05-06 06:05 61.79503 11.48451 34254 ft 458 kts 353°
2026-05-06 06:05 61.82687 11.48452 34562 ft 457 kts 353°
2026-05-06 06:05 61.85862 11.48456 34889 ft 456 kts 354°
2026-05-06 06:06 61.89033 11.48464 35208 ft 455 kts 354°
2026-05-06 06:06 61.92199 11.48474 35458 ft 456 kts 354°
2026-05-06 06:06 61.95376 11.48484 35687 ft 456 kts 354°
2026-05-06 06:06 61.98555 11.48495 35942 ft 456 kts 354°
2026-05-06 06:07 62.01730 11.48673 36204 ft 458 kts 358°
2026-05-06 06:07 62.04871 11.49249 36477 ft 460 kts
2026-05-06 06:07 62.08061 11.50014 36687 ft 462 kts
2026-05-06 06:07 62.11252 11.50840 36908 ft 462 kts
2026-05-06 06:08 62.17686 11.52474 36969 ft 467 kts
2026-05-06 06:08 62.24121 11.54016 36973 ft 462 kts
2026-05-06 06:09 62.30486 11.55494 36970 ft 458 kts
2026-05-06 06:09 62.36819 11.56954 36981 ft 457 kts
2026-05-06 06:10 62.43145 11.58420 36984 ft 457 kts
2026-05-06 06:10 62.49478 11.59897 36968 ft 457 kts
2026-05-06 06:11 62.55756 11.61371 36971 ft 457 kts
2026-05-06 06:11 62.62090 11.62863 36901 ft 458 kts
2026-05-06 06:12 62.68433 11.64364 36918 ft 459 kts
2026-05-06 06:12 62.74794 11.65876 36935 ft 460 kts
2026-05-06 06:13 62.81162 11.67397 36948 ft 461 kts
2026-05-06 06:13 62.87549 11.68929 36950 ft 462 kts
2026-05-06 06:14 62.93938 11.70468 36968 ft 462 kts
2026-05-06 06:14 63.00337 11.72016 36973 ft 463 kts
2026-05-06 06:15 63.06734 11.73572 36958 ft 463 kts
2026-05-06 06:15 63.13140 11.75136 36959 ft 462 kts
2026-05-06 06:16 63.19497 11.76695 36948 ft 462 kts
2026-05-06 06:16 63.25880 11.78266 36976 ft 461 kts
2026-05-06 06:17 63.32255 11.79843 36950 ft 460 kts
2026-05-06 06:17 63.38511 11.83031 36958 ft 464 kts 16°
2026-05-06 06:18 63.44577 11.88021 36945 ft 465 kts 17°
2026-05-06 06:18 63.50626 11.93113 36943 ft 464 kts 17°
2026-05-06 06:19 63.56681 11.98124 36972 ft 464 kts 17°
2026-05-06 06:19 63.62707 12.03066 36944 ft 464 kts 17°
2026-05-06 06:20 63.68771 12.08041 36939 ft 464 kts 17°
2026-05-06 06:20 63.74831 12.13038 36931 ft 463 kts 17°
2026-05-06 06:21 63.80890 12.18059 36939 ft 463 kts 17°
2026-05-06 06:21 63.86935 12.23094 36941 ft 463 kts 17°
2026-05-06 06:22 63.92983 12.28155 36930 ft 463 kts 17°
2026-05-06 06:22 63.98988 12.33202 36951 ft 463 kts 17°
2026-05-06 06:23 64.05031 12.38306 36971 ft 462 kts 17°
2026-05-06 06:23 64.11060 12.43421 36955 ft 462 kts 18°
2026-05-06 06:24 64.17092 12.48562 36947 ft 462 kts 18°
2026-05-06 06:24 64.23122 12.53725 36934 ft 462 kts 18°
2026-05-06 06:25 64.28130 12.58031 36928 ft 462 kts 18°
2026-05-06 06:26 64.37167 12.65845 36911 ft 462 kts 18°
2026-05-06 06:26 64.43194 12.71087 36924 ft 463 kts 18°
2026-05-06 06:27 64.49223 12.76355 36904 ft 463 kts 18°
2026-05-06 06:27 64.55245 12.81642 36893 ft 463 kts 18°
2026-05-06 06:28 64.61265 12.86953 36889 ft 463 kts 18°
2026-05-06 06:28 64.67282 12.92286 36878 ft 462 kts 18°
2026-05-06 06:29 64.73293 12.97639 36898 ft 462 kts 18°
2026-05-06 06:29 64.79259 13.02977 36875 ft 462 kts 18°
2026-05-06 06:30 64.85255 13.08368 36865 ft 461 kts 18°
2026-05-06 06:30 64.91242 13.13777 36862 ft 460 kts 18°
2026-05-06 06:31 64.97213 13.19198 36862 ft 459 kts 19°
2026-05-06 06:31 65.03175 13.24634 36861 ft 459 kts 19°
2026-05-06 06:32 65.09131 13.30093 36855 ft 459 kts 19°
2026-05-06 06:32 65.15084 13.35574 36842 ft 458 kts 19°
2026-05-06 06:33 65.21030 13.41077 36845 ft 458 kts 19°
2026-05-06 06:33 65.26974 13.46604 36830 ft 459 kts 19°
2026-05-06 06:34 65.32921 13.52160 36857 ft 459 kts 19°
2026-05-06 06:34 65.38859 13.57736 36833 ft 459 kts 19°
2026-05-06 06:35 65.44767 13.63309 36824 ft 459 kts 19°
2026-05-06 06:35 65.50704 13.68938 36823 ft 458 kts 19°
2026-05-06 06:36 65.56633 13.74587 36822 ft 458 kts 19°
2026-05-06 06:36 65.62561 13.80264 36827 ft 458 kts 19°
2026-05-06 06:37 65.68480 13.85959 36823 ft 458 kts 20°
2026-05-06 06:37 65.74399 13.91681 36815 ft 457 kts 20°
2026-05-06 06:38 65.80320 13.97350 36817 ft 457 kts 19°
2026-05-06 06:38 65.86272 14.02765 36818 ft 456 kts 18°